Time,TemperatureF,DewpointF,PressureIn,WindDirection,WindDirectionDegrees,WindSpeedMPH,WindSpeedGustMPH,Humidity,HourlyPrecipIn,Conditions,Clouds,dailyrainin,SoftwareType,DateUTC
2013-09-29 00:01:00,62.0,26.0,-100.00,SSE,148,5.0,14.0,25,0.00,,,-99.99,,2013-09-29 07:01:00,
2013-09-29 00:43:00,63.0,24.0,-100.00,South,181,11.0,23.0,22,0.00,,,-99.99,,2013-09-29 07:43:00,
2013-09-29 00:52:00,62.0,20.0,-100.00,South,181,12.0,24.0,20,0.00,,,-99.99,,2013-09-29 07:52:00,
2013-09-29 01:12:00,62.0,20.0,-100.00,South,171,14.0,28.0,20,0.00,,,-99.99,,2013-09-29 08:12:00,
2013-09-29 01:22:00,62.0,20.0,-100.00,South,171,14.0,28.0,20,0.00,,,-99.99,,2013-09-29 08:22:00,
2013-09-29 01:42:00,62.0,20.0,-100.00,SSE,167,15.0,28.0,20,0.00,,,-99.99,,2013-09-29 08:42:00,
2013-09-29 01:52:00,62.0,22.0,-100.00,South,169,15.0,30.0,21,0.00,,,-99.99,,2013-09-29 08:52:00,
2013-09-29 02:11:00,62.0,22.0,-100.00,SSE,164,14.0,25.0,21,0.00,,,-99.99,,2013-09-29 09:11:00,
2013-09-29 02:22:00,62.0,22.0,-100.00,SSE,164,14.0,25.0,21,0.00,,,-99.99,,2013-09-29 09:22:00,
2013-09-29 02:33:00,62.0,22.0,-100.00,SSE,164,14.0,25.0,21,0.00,,,-99.99,,2013-09-29 09:33:00,
2013-09-29 03:12:00,61.0,21.0,-100.00,SSE,155,12.0,26.0,21,0.00,,,-99.99,,2013-09-29 10:12:00,
2013-09-29 03:23:00,61.0,22.0,-100.00,SSE,161,11.0,21.0,22,0.00,,,-99.99,,2013-09-29 10:23:00,
2013-09-29 03:43:00,61.0,22.0,-100.00,SSE,165,13.0,22.0,22,0.00,,,-99.99,,2013-09-29 10:43:00,
2013-09-29 04:12:00,61.0,21.0,-100.00,SSE,164,13.0,25.0,21,0.00,,,-99.99,,2013-09-29 11:12:00,
2013-09-29 04:22:00,60.0,22.0,-100.00,SSE,161,13.0,27.0,23,0.00,,,-99.99,,2013-09-29 11:22:00,
2013-09-29 04:42:00,60.0,22.0,-100.00,SSE,158,11.0,21.0,23,0.00,,,-99.99,,2013-09-29 11:42:00,
2013-09-29 04:51:00,60.0,22.0,-100.00,SSE,158,11.0,21.0,23,0.00,,,-99.99,,2013-09-29 11:51:00,
2013-09-29 05:12:00,61.0,24.0,-100.00,SSE,157,13.0,27.0,24,0.00,,,-99.99,,2013-09-29 12:12:00,
2013-09-29 05:21:00,61.0,24.0,-100.00,SSE,150,12.0,27.0,24,0.00,,,-99.99,,2013-09-29 12:21:00,
2013-09-29 05:42:00,61.0,25.0,-100.00,SSE,161,11.0,26.0,25,0.00,,,-99.99,,2013-09-29 12:42:00,
2013-09-29 05:52:00,61.0,25.0,-100.00,SSE,161,11.0,26.0,25,0.00,,,-99.99,,2013-09-29 12:52:00,
2013-09-29 06:02:00,61.0,25.0,-100.00,SSE,161,11.0,26.0,25,0.00,,,-99.99,,2013-09-29 13:02:00,
2013-09-29 06:22:00,60.0,24.0,-100.00,SSE,162,12.0,22.0,25,0.00,,,-99.99,,2013-09-29 13:22:00,
2013-09-29 06:42:00,60.0,25.0,-100.00,SSE,165,11.0,21.0,26,0.00,,,-99.99,,2013-09-29 13:42:00,
2013-09-29 06:53:00,60.0,24.0,-100.00,SSE,164,12.0,23.0,25,0.00,,,-99.99,,2013-09-29 13:53:00,
2013-09-29 07:11:00,60.0,24.0,-100.00,SSE,155,13.0,25.0,25,0.00,,,-99.99,,2013-09-29 14:11:00,
2013-09-29 07:21:00,60.0,24.0,-100.00,SSE,155,13.0,25.0,25,0.00,,,-99.99,,2013-09-29 14:21:00,
2013-09-29 07:42:00,60.0,24.0,-100.00,SSE,152,12.0,29.0,25,0.00,,,-99.99,,2013-09-29 14:42:00,
2013-09-29 07:52:00,59.0,23.0,-100.00,SSE,158,12.0,24.0,25,0.00,,,-99.99,,2013-09-29 14:52:00,
2013-09-29 08:02:00,59.0,23.0,-100.00,SSE,158,12.0,24.0,25,0.00,,,-99.99,,2013-09-29 15:02:00,
2013-09-29 08:22:00,59.0,24.0,-100.00,SSE,168,12.0,24.0,26,0.00,,,-99.99,,2013-09-29 15:22:00,
2013-09-29 08:45:00,60.0,26.0,-100.00,SSE,162,11.0,21.0,27,0.00,,,-99.99,,2013-09-29 15:45:00,
2013-09-29 08:55:00,60.0,26.0,-100.00,SSE,158,11.0,21.0,27,0.00,,,-99.99,,2013-09-29 15:55:00,
2013-09-29 09:04:00,60.0,26.0,-100.00,SSE,158,11.0,21.0,27,0.00,,,-99.99,,2013-09-29 16:04:00,
2013-09-29 09:24:00,59.0,25.0,-100.00,SSE,157,12.0,25.0,27,0.00,,,-99.99,,2013-09-29 16:24:00,
2013-09-29 09:44:00,61.0,26.0,-100.00,SSE,160,13.0,25.0,26,0.00,,,-99.99,,2013-09-29 16:44:00,
2013-09-29 10:12:00,63.0,27.0,-100.00,SSE,165,13.0,28.0,25,0.00,,,-99.99,,2013-09-29 17:12:00,
2013-09-29 10:23:00,64.0,26.0,-100.00,South,169,9.0,18.0,24,0.00,,,-99.99,,2013-09-29 17:23:00,
2013-09-29 10:43:00,65.0,27.0,-100.00,South,175,13.0,25.0,24,0.00,,,-99.99,,2013-09-29 17:43:00,
2013-09-29 11:13:00,66.0,28.0,-100.00,South,178,13.0,24.0,24,0.00,,,-99.99,,2013-09-29 18:13:00,
2013-09-29 11:22:00,66.0,26.0,-100.00,SSW,193,14.0,29.0,22,0.00,,,-99.99,,2013-09-29 18:22:00,
2013-09-29 11:42:00,68.0,27.0,-100.00,South,182,12.0,22.0,21,0.00,,,-99.99,,2013-09-29 18:42:00,
2013-09-29 12:11:00,69.0,26.0,-100.00,South,191,15.0,25.0,20,0.00,,,-99.99,,2013-09-29 19:11:00,
2013-09-29 12:21:00,69.0,26.0,-100.00,South,191,15.0,25.0,20,0.00,,,-99.99,,2013-09-29 19:21:00,
2013-09-29 12:42:00,69.0,27.0,-100.00,South,185,17.0,32.0,21,0.00,,,-99.99,,2013-09-29 19:42:00,
2013-09-29 12:52:00,69.0,27.0,-100.00,South,185,17.0,32.0,21,0.00,,,-99.99,,2013-09-29 19:52:00,
2013-09-29 13:12:00,68.0,27.0,-100.00,SSW,196,15.0,26.0,21,0.00,,,-99.99,,2013-09-29 20:12:00,
2013-09-29 13:22:00,68.0,27.0,-100.00,SSW,196,15.0,26.0,21,0.00,,,-99.99,,2013-09-29 20:22:00,
2013-09-29 13:42:00,69.0,26.0,-100.00,SSW,203,15.0,33.0,20,0.00,,,-99.99,,2013-09-29 20:42:00,
2013-09-29 13:52:00,70.0,27.0,-100.00,SW,215,15.0,29.0,20,0.00,,,-99.99,,2013-09-29 20:52:00,
2013-09-29 14:02:00,70.0,27.0,-100.00,SW,215,15.0,29.0,20,0.00,,,-99.99,,2013-09-29 21:02:00,
2013-09-29 14:20:00,69.0,26.0,-100.00,SSW,196,15.0,29.0,20,0.00,,,-99.99,,2013-09-29 21:20:00,
2013-09-29 14:21:00,69.0,26.0,-100.00,SSW,206,17.0,30.0,20,0.00,,,-99.99,,2013-09-29 21:21:00,
2013-09-29 14:44:00,70.0,26.0,-100.00,SSW,199,14.0,36.0,19,0.00,,,-99.99,,2013-09-29 21:44:00,
2013-09-29 14:54:00,69.0,26.0,-100.00,SSW,196,15.0,29.0,20,0.00,,,-99.99,,2013-09-29 21:54:00,
2013-09-29 15:04:00,69.0,26.0,-100.00,SSW,196,15.0,29.0,20,0.00,,,-99.99,,2013-09-29 22:04:00,
2013-09-29 15:14:00,69.0,26.0,-100.00,SSW,196,15.0,29.0,20,0.00,,,-99.99,,2013-09-29 22:14:00,
2013-09-29 15:43:00,70.0,26.0,-100.00,SSW,200,17.0,28.0,19,0.00,,,-99.99,,2013-09-29 22:43:00,
2013-09-29 16:12:00,72.0,25.0,-100.00,SSW,198,18.0,31.0,17,0.00,,,-99.99,,2013-09-29 23:12:00,
2013-09-29 16:23:00,72.0,22.0,-100.00,SSW,193,18.0,32.0,15,0.00,,,-99.99,,2013-09-29 23:23:00,
2013-09-29 16:43:00,70.0,25.0,-100.00,SSW,193,20.0,31.0,18,0.00,,,-99.99,,2013-09-29 23:43:00,
2013-09-29 17:11:00,71.0,23.0,-100.00,SSW,199,16.0,28.0,16,0.00,,,-99.99,,2013-09-30 00:11:00,
2013-09-29 17:22:00,70.0,25.0,-100.00,SSW,198,15.0,33.0,18,0.00,,,-99.99,,2013-09-30 00:22:00,
2013-09-29 17:42:00,70.0,25.0,-100.00,SSW,202,17.0,32.0,18,0.00,,,-99.99,,2013-09-30 00:42:00,
2013-09-29 18:11:00,69.0,24.0,-100.00,South,188,16.0,29.0,18,0.00,,,-99.99,,2013-09-30 01:11:00,
2013-09-29 18:22:00,68.0,24.0,-100.00,SSW,208,17.0,29.0,19,0.00,,,-99.99,,2013-09-30 01:22:00,
2013-09-29 18:31:00,68.0,24.0,-100.00,SSW,208,17.0,29.0,19,0.00,,,-99.99,,2013-09-30 01:31:00,
2013-09-29 19:12:00,65.0,25.0,-100.00,South,188,15.0,27.0,22,0.00,,,-99.99,,2013-09-30 02:12:00,
2013-09-29 19:22:00,65.0,25.0,-100.00,South,188,15.0,27.0,22,0.00,,,-99.99,,2013-09-30 02:22:00,
2013-09-29 19:42:00,65.0,26.0,-100.00,SSW,192,17.0,29.0,23,0.00,,,-99.99,,2013-09-30 02:42:00,
2013-09-29 19:52:00,64.0,26.0,-100.00,South,191,17.0,29.0,24,0.00,,,-99.99,,2013-09-30 02:52:00,
2013-09-29 20:12:00,63.0,27.0,-100.00,South,188,19.0,32.0,25,0.00,,,-99.99,,2013-09-30 03:12:00,
2013-09-29 20:22:00,63.0,27.0,-100.00,South,188,19.0,32.0,25,0.00,,,-99.99,,2013-09-30 03:22:00,
2013-09-29 20:44:00,62.0,28.0,-100.00,South,179,21.0,37.0,27,0.00,,,-99.99,,2013-09-30 03:44:00,
2013-09-29 20:55:00,62.0,28.0,-100.00,South,184,20.0,35.0,27,0.00,,,-99.99,,2013-09-30 03:55:00,
2013-09-29 21:04:00,62.0,28.0,-100.00,South,184,20.0,35.0,27,0.00,,,-99.99,,2013-09-30 04:04:00,
2013-09-29 21:44:00,62.0,28.0,-100.00,South,184,17.0,31.0,27,0.00,,,-99.99,,2013-09-30 04:44:00,
2013-09-29 21:53:00,61.0,27.0,-100.00,South,178,18.0,31.0,27,0.00,,,-99.99,,2013-09-30 04:53:00,
2013-09-29 22:12:00,61.0,27.0,-100.00,South,178,17.0,30.0,27,0.00,,,-99.99,,2013-09-30 05:12:00,
2013-09-29 22:43:00,61.0,26.0,-100.00,South,174,16.0,27.0,26,0.00,,,-99.99,,2013-09-30 05:43:00,
2013-09-29 23:12:00,61.0,26.0,-100.00,South,172,16.0,29.0,26,0.00,,,-99.99,,2013-09-30 06:12:00,
2013-09-29 23:21:00,61.0,26.0,-100.00,South,175,15.0,28.0,26,0.00,,,-99.99,,2013-09-30 06:21:00,
2013-09-29 23:42:00,60.0,25.0,-100.00,South,169,14.0,28.0,26,0.00,,,-99.99,,2013-09-30 06:42:00,